DLH172 EDDB-EHAM

Flight info

Callsign DLH172
Flight time 1h 4m
Altitude 36000
Route SUKIP3N SUKIP Y206 BUREL P203 HLZ L980 ROBEG DCT NORKU
Aircraft B738/M-SDE2E3FGHIRWXY/LB1

Departure

Time 2026-05-07 19:56
Airport Berlin Brandenburg Airport (EDDB)

Arrival

Time 2026-05-07 21:00
Airport Amsterdam Airport Schiphol (EHAM)
Time Latitude Longitude Altitude Speed Heading
2026-05-07 19:25 52.36474 13.50068 140 ft 0 kts 248°
2026-05-07 19:43 52.36477 13.50080 140 ft 2 kts 248°
2026-05-07 19:43 52.36483 13.50103 140 ft 2 kts 248°
2026-05-07 19:43 52.36488 13.50126 140 ft 2 kts 248°
2026-05-07 19:44 52.36493 13.50149 140 ft 1 kts 248°
2026-05-07 19:44 52.36497 13.50163 140 ft 2 kts 238°
2026-05-07 19:44 52.36507 13.50180 140 ft 2 kts 211°
2026-05-07 19:44 52.36521 13.50188 140 ft 2 kts 186°
2026-05-07 19:45 52.36535 13.50187 140 ft 0 kts 163°
2026-05-07 19:45 52.36541 13.50183 140 ft 1 kts 159°
2026-05-07 19:45 52.36542 13.50183 140 ft 0 kts 159°
2026-05-07 19:48 52.36538 13.50185 140 ft 2 kts 159°
2026-05-07 19:48 52.36502 13.50206 140 ft 8 kts 160°
2026-05-07 19:48 52.36444 13.50243 140 ft 8 kts 158°
2026-05-07 19:48 52.36390 13.50277 140 ft 7 kts 158°
2026-05-07 19:49 52.36343 13.50312 140 ft 6 kts 142°
2026-05-07 19:49 52.36336 13.50371 140 ft 5 kts 33°
2026-05-07 19:49 52.36372 13.50365 140 ft 5 kts 337°
2026-05-07 19:49 52.36409 13.50342 140 ft 7 kts 339°
2026-05-07 19:50 52.36470 13.50304 140 ft 11 kts 339°
2026-05-07 19:50 52.36541 13.50258 140 ft 10 kts 338°
2026-05-07 19:50 52.36618 13.50205 140 ft 10 kts 339°
2026-05-07 19:50 52.36691 13.50158 140 ft 11 kts 328°
2026-05-07 19:51 52.36727 13.50089 140 ft 2 kts 302°
2026-05-07 19:51 52.36734 13.50075 140 ft 0 kts 311°
2026-05-07 19:51 52.36742 13.50061 140 ft 5 kts 316°
2026-05-07 19:52 52.36780 13.49991 140 ft 11 kts 285°
2026-05-07 19:52 52.36751 13.49825 138 ft 19 kts 249°
2026-05-07 19:52 52.36703 13.49623 140 ft 17 kts 248°
2026-05-07 19:52 52.36659 13.49438 139 ft 17 kts 249°
2026-05-07 19:53 52.36616 13.49257 139 ft 16 kts 248°
2026-05-07 19:53 52.36575 13.49082 138 ft 16 kts 248°
2026-05-07 19:53 52.36534 13.48911 137 ft 15 kts 249°
2026-05-07 19:53 52.36494 13.48745 136 ft 15 kts 248°
2026-05-07 19:54 52.36457 13.48586 136 ft 14 kts 249°
2026-05-07 19:54 52.36444 13.48437 136 ft 13 kts 299°
2026-05-07 19:54 52.36519 13.48370 136 ft 12 kts 339°
2026-05-07 19:54 52.36595 13.48324 136 ft 11 kts 339°
2026-05-07 19:55 52.36667 13.48288 136 ft 10 kts 356°
2026-05-07 19:55 52.36727 13.48328 136 ft 10 kts 57°
2026-05-07 19:55 52.36781 13.48551 136 ft 48 kts 70°
2026-05-07 19:55 52.36990 13.49430 146 ft 116 kts 68°
2026-05-07 19:56 52.37356 13.50969 151 ft 171 kts 68°
2026-05-07 19:56 52.37790 13.52773 838 ft 171 kts 67°
2026-05-07 19:56 52.38205 13.54555 1633 ft 171 kts 67°
2026-05-07 19:56 52.38644 13.56410 2158 ft 184 kts 66°
2026-05-07 19:57 52.39143 13.58409 2682 ft 199 kts 66°
2026-05-07 19:57 52.39679 13.60572 3227 ft 213 kts 65°
2026-05-07 19:57 52.40490 13.62660 3737 ft 228 kts 44°
2026-05-07 19:57 52.41874 13.63954 4386 ft 239 kts 21°
2026-05-07 19:58 52.43495 13.64817 4907 ft 255 kts 18°
2026-05-07 19:58 52.45215 13.65725 5655 ft 260 kts 20°
2026-05-07 19:58 52.46904 13.66694 6448 ft 263 kts 21°
2026-05-07 19:58 52.48634 13.67722 7231 ft 267 kts 20°
2026-05-07 19:59 52.50425 13.68491 7969 ft 271 kts
2026-05-07 19:59 52.52296 13.68281 8631 ft 275 kts 345°
2026-05-07 19:59 52.54033 13.66948 9286 ft 279 kts 327°
2026-05-07 19:59 52.55520 13.64928 9948 ft 282 kts 314°
2026-05-07 20:00 52.56720 13.62384 10587 ft 286 kts 304°
2026-05-07 20:00 52.57761 13.59617 11213 ft 289 kts 301°
2026-05-07 20:00 52.58568 13.56578 11827 ft 294 kts 286°
2026-05-07 20:00 52.58816 13.53288 12455 ft 297 kts 271°
2026-05-07 20:01 52.58566 13.49847 12828 ft 312 kts 256°
2026-05-07 20:01 52.57740 13.46487 13144 ft 328 kts 245°
2026-05-07 20:01 52.56638 13.43104 13516 ft 343 kts 242°
2026-05-07 20:01 52.55470 13.39629 14150 ft 349 kts 243°
2026-05-07 20:02 52.54330 13.36161 14885 ft 353 kts 243°
2026-05-07 20:02 52.53186 13.32599 15597 ft 357 kts 243°
2026-05-07 20:02 52.52031 13.28960 16310 ft 360 kts 243°
2026-05-07 20:02 52.50887 13.25334 16996 ft 364 kts 243°
2026-05-07 20:03 52.49720 13.21626 17670 ft 368 kts 243°
2026-05-07 20:03 52.48546 13.17905 18329 ft 371 kts 243°
2026-05-07 20:03 52.47356 13.14135 18981 ft 374 kts 244°
2026-05-07 20:03 52.46164 13.10354 19639 ft 378 kts 244°
2026-05-07 20:04 52.44960 13.06545 20270 ft 381 kts 244°
2026-05-07 20:04 52.43737 13.02688 20887 ft 384 kts 244°
2026-05-07 20:04 52.42507 12.98819 21463 ft 388 kts 244°
2026-05-07 20:04 52.41256 12.94894 22042 ft 392 kts 244°
2026-05-07 20:05 52.39995 12.90943 22620 ft 395 kts 244°
2026-05-07 20:05 52.38732 12.86991 23189 ft 398 kts 244°
2026-05-07 20:05 52.37441 12.82958 23783 ft 400 kts 244°
2026-05-07 20:05 52.36153 12.78944 24331 ft 403 kts 244°
2026-05-07 20:06 52.34852 12.74895 24856 ft 406 kts 244°
2026-05-07 20:06 52.33536 12.70806 25395 ft 409 kts 244°
2026-05-07 20:06 52.32200 12.66658 25911 ft 412 kts 244°
2026-05-07 20:06 52.30874 12.62548 26406 ft 415 kts 244°
2026-05-07 20:07 52.29532 12.58395 26898 ft 417 kts 244°
2026-05-07 20:07 52.28257 12.54110 27371 ft 420 kts 248°
2026-05-07 20:07 52.27314 12.49609 27825 ft 421 kts 257°
2026-05-07 20:07 52.26860 12.44908 28271 ft 422 kts 268°
2026-05-07 20:08 52.26921 12.40163 28706 ft 424 kts 277°
2026-05-07 20:08 52.27377 12.35403 29135 ft 426 kts 282°
2026-05-07 20:08 52.27995 12.30661 29552 ft 429 kts 283°
2026-05-07 20:08 52.28675 12.25968 29948 ft 432 kts 284°
2026-05-07 20:09 52.29384 12.21206 30343 ft 435 kts 284°
2026-05-07 20:09 52.30096 12.16402 30897 ft 433 kts 284°
2026-05-07 20:09 52.30781 12.11717 31449 ft 431 kts 283°
2026-05-07 20:10 52.32137 12.02227 32254 ft 430 kts 283°
2026-05-07 20:10 52.32805 11.97457 32620 ft 430 kts 283°
2026-05-07 20:10 52.33456 11.92758 32944 ft 429 kts 283°
2026-05-07 20:10 52.34065 11.87970 33277 ft 428 kts 280°
2026-05-07 20:11 52.34463 11.83175 33582 ft 428 kts 276°
2026-05-07 20:11 52.34687 11.78357 33870 ft 428 kts 274°
2026-05-07 20:11 52.34821 11.73531 34150 ft 428 kts 272°
2026-05-07 20:11 52.34915 11.68713 34454 ft 427 kts 272°
2026-05-07 20:12 52.34994 11.63893 34728 ft 427 kts 272°
2026-05-07 20:12 52.35070 11.59034 35032 ft 426 kts 272°
2026-05-07 20:12 52.35148 11.54244 35327 ft 425 kts 272°
2026-05-07 20:12 52.35228 11.49420 35593 ft 424 kts 272°
2026-05-07 20:13 52.35310 11.44650 35862 ft 424 kts 272°
2026-05-07 20:13 52.35394 11.39803 36061 ft 424 kts 272°
2026-05-07 20:13 52.35478 11.34997 36087 ft 426 kts 272°
2026-05-07 20:14 52.35643 11.25407 36107 ft 423 kts 271°
2026-05-07 20:14 52.35803 11.15823 36103 ft 423 kts 271°
2026-05-07 20:15 52.35937 11.06255 36107 ft 423 kts 270°
2026-05-07 20:15 52.35804 10.96656 36110 ft 422 kts 268°
2026-05-07 20:16 52.35560 10.87097 36102 ft 423 kts 268°
2026-05-07 20:16 52.35324 10.77533 36108 ft 423 kts 268°
2026-05-07 20:17 52.35104 10.67910 36115 ft 423 kts 268°
2026-05-07 20:17 52.34893 10.58372 36111 ft 423 kts 268°
2026-05-07 20:18 52.34680 10.48808 36106 ft 422 kts 268°
2026-05-07 20:18 52.34460 10.39173 36123 ft 423 kts 268°
2026-05-07 20:19 52.34233 10.29621 36116 ft 422 kts 268°
2026-05-07 20:19 52.33999 10.20041 36109 ft 424 kts 268°
2026-05-07 20:20 52.33757 10.10480 36112 ft 424 kts 268°
2026-05-07 20:20 52.33506 10.00864 36108 ft 424 kts 268°
2026-05-07 20:21 52.33249 9.91330 36112 ft 422 kts 268°
2026-05-07 20:21 52.32984 9.81774 36115 ft 423 kts 268°
2026-05-07 20:22 52.32711 9.72201 36115 ft 422 kts 268°
2026-05-07 20:22 52.32433 9.62731 36110 ft 421 kts 268°
2026-05-07 20:23 52.32144 9.53147 36105 ft 421 kts 267°
2026-05-07 20:23 52.31849 9.43604 36105 ft 421 kts 267°
2026-05-07 20:24 52.31546 9.34077 36102 ft 422 kts 266°
2026-05-07 20:24 52.31237 9.24578 36103 ft 420 kts 266°
2026-05-07 20:25 52.30919 9.15060 36103 ft 420 kts 266°
2026-05-07 20:25 52.30595 9.05577 36108 ft 420 kts 266°
2026-05-07 20:26 52.30264 8.96132 36110 ft 420 kts 266°
2026-05-07 20:26 52.29924 8.86660 36104 ft 420 kts 266°
2026-05-07 20:27 52.29576 8.77148 36102 ft 419 kts 266°
2026-05-07 20:27 52.29223 8.67699 36102 ft 420 kts 266°
2026-05-07 20:28 52.28859 8.58187 36100 ft 420 kts 266°
2026-05-07 20:28 52.28489 8.48697 36097 ft 419 kts 266°
2026-05-07 20:29 52.28114 8.39282 36097 ft 419 kts 266°
2026-05-07 20:29 52.27730 8.29836 36096 ft 419 kts 265°
2026-05-07 20:30 52.27335 8.20312 36094 ft 419 kts 265°
2026-05-07 20:30 52.26936 8.10880 36094 ft 419 kts 265°
2026-05-07 20:31 52.26529 8.01423 36094 ft 419 kts 265°
2026-05-07 20:31 52.26115 7.91998 36094 ft 419 kts 265°
2026-05-07 20:32 52.25693 7.82554 36100 ft 419 kts 265°
2026-05-07 20:32 52.25261 7.73050 35786 ft 423 kts 265°
2026-05-07 20:32 52.25042 7.68325 35368 ft 423 kts 265°
2026-05-07 20:33 52.24822 7.63577 34917 ft 421 kts 265°
2026-05-07 20:33 52.24599 7.58832 34411 ft 420 kts 265°
2026-05-07 20:33 52.24378 7.54153 33826 ft 420 kts 265°
2026-05-07 20:33 52.24153 7.49432 33226 ft 419 kts 265°
2026-05-07 20:34 52.23926 7.44707 32624 ft 418 kts 265°
2026-05-07 20:34 52.23698 7.40022 32003 ft 418 kts 265°
2026-05-07 20:34 52.23465 7.35261 31370 ft 419 kts 265°
2026-05-07 20:34 52.23233 7.30546 30721 ft 419 kts 264°
2026-05-07 20:35 52.22999 7.25853 30038 ft 421 kts 264°
2026-05-07 20:35 52.22761 7.21113 29339 ft 422 kts 264°
2026-05-07 20:35 52.22519 7.16332 28634 ft 424 kts 264°
2026-05-07 20:35 52.22275 7.11547 27937 ft 426 kts 264°
2026-05-07 20:36 52.22051 7.06740 27239 ft 428 kts 266°
2026-05-07 20:36 52.22094 7.01912 26545 ft 431 kts 274°
2026-05-07 20:36 52.22710 6.97194 26141 ft 428 kts 289°
2026-05-07 20:36 52.24024 6.92941 26097 ft 417 kts 302°
2026-05-07 20:37 52.25699 6.89219 26093 ft 399 kts 307°
2026-05-07 20:37 52.27408 6.85742 26032 ft 383 kts 308°
2026-05-07 20:37 52.29052 6.82484 25886 ft 371 kts 308°
2026-05-07 20:37 52.30667 6.79307 25744 ft 358 kts 308°
2026-05-07 20:38 52.32243 6.76196 25337 ft 355 kts 308°
2026-05-07 20:38 52.33813 6.73080 24849 ft 353 kts 308°
2026-05-07 20:38 52.35358 6.69995 24380 ft 351 kts 308°
2026-05-07 20:38 52.36886 6.66931 23893 ft 349 kts 308°
2026-05-07 20:39 52.38391 6.63902 23433 ft 347 kts 308°
2026-05-07 20:39 52.39914 6.60831 22988 ft 345 kts 308°
2026-05-07 20:39 52.41402 6.57822 22536 ft 342 kts 308°
2026-05-07 20:39 52.42897 6.54797 22079 ft 341 kts 308°
2026-05-07 20:40 52.44372 6.51802 21634 ft 338 kts 307°
2026-05-07 20:40 52.45713 6.48682 21189 ft 335 kts 300°
2026-05-07 20:40 52.46664 6.45223 20734 ft 332 kts 286°
2026-05-07 20:40 52.47131 6.41556 20310 ft 329 kts 277°
2026-05-07 20:41 52.47374 6.37888 19879 ft 326 kts 275°
2026-05-07 20:41 52.47558 6.34180 19446 ft 324 kts 273°
2026-05-07 20:41 52.47723 6.30549 19003 ft 323 kts 273°
2026-05-07 20:41 52.47887 6.26889 18589 ft 320 kts 273°
2026-05-07 20:42 52.48051 6.23290 18170 ft 318 kts 274°
2026-05-07 20:42 52.48218 6.19711 17739 ft 316 kts 274°
2026-05-07 20:42 52.48390 6.16123 17309 ft 315 kts 274°
2026-05-07 20:42 52.48559 6.12598 16888 ft 313 kts 274°
2026-05-07 20:43 52.48730 6.09047 16470 ft 311 kts 274°
2026-05-07 20:43 52.48899 6.05530 16055 ft 309 kts 274°
2026-05-07 20:43 52.49065 6.02040 15657 ft 307 kts 274°
2026-05-07 20:43 52.49231 5.98528 15246 ft 305 kts 274°
2026-05-07 20:44 52.49392 5.95121 14848 ft 304 kts 274°
2026-05-07 20:44 52.49553 5.91661 14447 ft 302 kts 274°
2026-05-07 20:44 52.49712 5.88250 14026 ft 300 kts 274°
2026-05-07 20:44 52.49869 5.84843 13618 ft 299 kts 274°
2026-05-07 20:45 52.50024 5.81485 13178 ft 298 kts 274°
2026-05-07 20:45 52.50176 5.78148 12652 ft 295 kts 274°
2026-05-07 20:45 52.50327 5.74807 12111 ft 293 kts 274°
2026-05-07 20:45 52.50478 5.71474 11561 ft 291 kts 274°
2026-05-07 20:46 52.50625 5.68187 11151 ft 289 kts 274°
2026-05-07 20:46 52.50770 5.64927 10750 ft 287 kts 274°
2026-05-07 20:46 52.50913 5.61702 10386 ft 285 kts 274°
2026-05-07 20:46 52.50948 5.58451 10061 ft 282 kts 265°
2026-05-07 20:47 52.50443 5.55440 9992 ft 273 kts 241°
2026-05-07 20:47 52.49319 5.52922 10000 ft 276 kts 230°
2026-05-07 20:47 52.48060 5.50552 9998 ft 276 kts 229°
2026-05-07 20:47 52.46816 5.48199 9998 ft 276 kts 230°
2026-05-07 20:48 52.45572 5.45775 9997 ft 276 kts 231°
2026-05-07 20:48 52.44363 5.43372 10003 ft 276 kts 231°
2026-05-07 20:48 52.43141 5.40925 9998 ft 275 kts 231°
2026-05-07 20:48 52.41936 5.38510 10004 ft 276 kts 231°
2026-05-07 20:49 52.40709 5.36057 9704 ft 279 kts 231°
2026-05-07 20:49 52.39478 5.33600 9283 ft 280 kts 230°
2026-05-07 20:49 52.38258 5.31169 8935 ft 278 kts 230°
2026-05-07 20:49 52.37029 5.28723 8584 ft 276 kts 230°
2026-05-07 20:50 52.35827 5.26332 8243 ft 274 kts 230°
2026-05-07 20:50 52.34622 5.23927 7898 ft 273 kts 230°
2026-05-07 20:50 52.33433 5.21546 7554 ft 271 kts 230°
2026-05-07 20:50 52.32248 5.19178 7210 ft 269 kts 230°
2026-05-07 20:51 52.31076 5.16841 6880 ft 267 kts 230°
2026-05-07 20:51 52.29907 5.14520 6549 ft 265 kts 229°
2026-05-07 20:51 52.28746 5.12229 6216 ft 264 kts 229°
2026-05-07 20:51 52.27581 5.09922 5886 ft 262 kts 229°
2026-05-07 20:52 52.26429 5.07642 5642 ft 257 kts 229°
2026-05-07 20:52 52.25307 5.05423 5539 ft 249 kts 228°
2026-05-07 20:52 52.24105 5.03483 5381 ft 242 kts 216°
2026-05-07 20:52 52.22700 5.01998 5087 ft 240 kts 208°
2026-05-07 20:53 52.21278 5.00713 4826 ft 239 kts 207°
2026-05-07 20:53 52.19836 4.99390 4550 ft 238 kts 208°
2026-05-07 20:53 52.18420 4.98044 4276 ft 236 kts 209°
2026-05-07 20:53 52.17019 4.96685 4007 ft 235 kts 210°
2026-05-07 20:54 52.15610 4.95312 3737 ft 233 kts 210°
2026-05-07 20:54 52.14230 4.93970 3477 ft 233 kts 210°
2026-05-07 20:54 52.12915 4.92684 3234 ft 231 kts 211°
2026-05-07 20:54 52.11699 4.91101 3127 ft 227 kts 228°
2026-05-07 20:55 52.11041 4.88853 3045 ft 223 kts 262°
2026-05-07 20:55 52.11019 4.86372 2958 ft 220 kts 273°
2026-05-07 20:55 52.11086 4.83879 2863 ft 220 kts 273°
2026-05-07 20:55 52.11264 4.81429 2775 ft 220 kts 286°
2026-05-07 20:56 52.12011 4.79293 2605 ft 218 kts 321°
2026-05-07 20:56 52.13289 4.78099 2488 ft 205 kts 339°
2026-05-07 20:56 52.14552 4.77202 2427 ft 193 kts 338°
2026-05-07 20:56 52.15750 4.76453 2368 ft 182 kts 349°
2026-05-07 20:57 52.16991 4.76396 2228 ft 174 kts 12°
2026-05-07 20:57 52.18174 4.76636 2060 ft 169 kts
2026-05-07 20:57 52.19330 4.76770 1948 ft 161 kts
2026-05-07 20:57 52.20398 4.76887 1746 ft 150 kts
2026-05-07 20:58 52.21410 4.76990 1531 ft 139 kts
2026-05-07 20:58 52.22379 4.77089 1353 ft 143 kts
2026-05-07 20:58 52.23349 4.77184 1146 ft 137 kts
2026-05-07 20:58 52.24320 4.77282 987 ft 142 kts
2026-05-07 20:59 52.25271 4.77374 770 ft 134 kts
2026-05-07 20:59 52.26212 4.77475 619 ft 138 kts
2026-05-07 20:59 52.27148 4.77554 404 ft 134 kts
2026-05-07 20:59 52.28089 4.77647 249 ft 140 kts
2026-05-07 21:00 52.29065 4.77726 52 ft 142 kts
2026-05-07 21:00 52.29989 4.77827 -6 ft 118 kts
2026-05-07 21:00 52.30562 4.77873 0 ft 48 kts
2026-05-07 21:00 52.30769 4.77890 1 ft 20 kts
2026-05-07 21:01 52.30934 4.77826 2 ft 28 kts 332°
2026-05-07 21:01 52.31057 4.77728 5 ft 16 kts 333°
2026-05-07 21:01 52.31138 4.77620 6 ft 14 kts 304°
2026-05-07 21:01 52.31144 4.77521 8 ft 5 kts 239°
2026-05-07 21:02 52.31112 4.77496 9 ft 6 kts 192°
2026-05-07 21:02 52.31075 4.77441 11 ft 8 kts 260°
2026-05-07 21:02 52.31076 4.77319 11 ft 13 kts 272°
2026-05-07 21:02 52.31077 4.77148 10 ft 15 kts 271°
2026-05-07 21:03 52.31086 4.76988 10 ft 9 kts 288°
2026-05-07 21:03 52.31116 4.76896 9 ft 9 kts 305°
2026-05-07 21:03 52.31145 4.76827 8 ft 4 kts 305°
2026-05-07 21:03 52.31162 4.76788 8 ft 4 kts 304°
2026-05-07 21:04 52.31168 4.76774 8 ft 0 kts 302°